Vertical_Velocity
3 3 -1 1 1 1 -3 -26 18 4 -9 8 -1 1 -7 2 7 4 3 -0 -2 -28 -2 5 -4 4 5 7 -2 3 0 -8 -2 -4 -1 -2 -2 -6 -2 2 1 -3 1 1 -1 -2 -6 2 -1
3 1 0 6 -2 3 -15 4 5 2 8 2 5 6 2 -18 5 6 5 -1 16 -6 -24 12 4 2 3 3 2 2 2 -3 -4 -4 1 2 -4 1 -2 -0 -3 0 0 1 -3 1 3 -0 -2
3 3 3 -2 -4 -13 -11 2 3 -0 -4 -8 -10 1 -5 -5 -25 -3 2 3 15 3 -9 3 10 -0 9 3 -6 0 2 -4 0 -3 -0 -0 -3 0 -2 -4 -4 -2 0 0 1 0 -0 -1 -1
1 6 4 -3 -7 -9 -7 -3 0 9 3 3 0 -7 -4 -7 1 -1 1 13 4 3 -2 9 7 7 -8 -4 -6 2 7 -3 3 -5 2 -3 -2 -4 -3 -1 -3 -4 1 -5 -1 -2 -5 -0 -2
1 -2 0 -3 -11 24 -3 23 23 -1 -7 -9 1 -15 5 -1 -5 1 14 12 16 10 37 -21 10 14 -18 -7 4 -3 6 -1 -2 -2 0 2 -4 -1 0 -2 -4 0 -6 -0 2 -4 -4 -4 -4
-8 6 -1 -4 5 -11 12 8 14 3 5 -19 -9 -1 2 5 4 -2 17 14 2 3 25 14 11 -11 4 8 2 2 4 -2 -1 -1 -1 -3 -0 -3 -7 -1 -4 0 1 -3 -3 -2 1 -6 -5
-2 4 -10 3 22 -8 4 -1 -0 -6 -2 7 -2 1 -2 -4 3 3 -0 9 27 6 -0 13 -13 17 8 1 3 4 -2 1 -2 -3 -2 -0 -5 -4 -7 2 -6 -4 -2 -2 -0 -2 -0 1 -0
-1 7 -6 1 9 -1 -1 8 -0 9 1 25 26 3 4 -5 -0 6 10 6 7 17 1 -11 -2 9 -3 -2 5 1 -8 0 -4 1 -2 1 -4 -5 1 -2 -4 -2 -8 -3 -3 -9 1 1 -2
11 1 1 -3 17 5 -1 -17 -6 -38 -4 -10 4 -3 16 6 -7 5 -3 5 1 21 -15 17 -5 -8 -2 -10 -3 -2 -4 0 1 1 -1 -1 -1 -1 -1 1 -3 -3 1 1 -7 -1 1 -2 -0
-0 2 6 12 2 1 -2 -4 -3 -2 9 -17 -41 -59 26 9 -3 7 0 5 -1 -17 -30 -2 4 -11 -2 -2 -0 2 -0 -2 -3 -3 -4 -2 -3 -4 1 -0 0 -2 1 -0 -0 -1 3 -1 -0
-6 -12 22 -0 5 2 -0 -1 -3 -6 3 -11 -11 -9 3 7 -2 2 8 24 -16 0 -9 3 -1 2 -4 1 5 2 -4 1 -3 2 -4 -1 -0 2 -1 2 7 0 -11 -1 1 2 1 -3 -5
2 26 16 -2 -1 -2 -9 -0 8 0 12 4 6 15 5 5 3 3 23 -39 -9 7 5 3 -5 10 5 2 -1 -5 -5 -9 -8 -7 -4 -1 -6 2 -1 0 -4 -3 8 -1 -7 0 -5 -3 -2
16 -2 4 -3 10 -10 -22 -2 -4 25 13 13 -26 19 14 4 28 -1 -26 -7 7 15 -4 -2 8 -2 2 0 -2 -8 4 -1 1 3 5 1 4 2 -4 -1 -1 -4 4 -1 0 -3 -1 -2 -4
27 13 -8 -8 20 6 -8 -11 9 -14 -36 -58 35 -6 2 3 -15 -18 -7 -3 7 -1 2 2 3 -1 -4 -8 0 4 -5 5 -1 2 3 3 2 3 3 1 2 3 -2 -0 -1 2 3 1 1
10 -7 -2 25 -14 -21 -1 -2 9 -3 -11 -4 49 -9 13 -3 -8 -4 -12 1 6 -3 -0 -0 1 0 -1 2 -0 -6 -1 1 -4 -3 -1 4 1 3 0 -3 1 -2 -2 3 -0 -1 4 -1 -1
4 -6 1 2 -3 13 3 -10 8 14 10 5 -0 8 -2 7 -8 -8 -3 -11 7 -2 4 -5 5 3 -3 -6 1 3 1 -3 -3 2 1 1 5 3 1 -2 -1 0 -1 4 5 -1 -1 2 -3
-14 -10 -5 39 -4 -51 2 1 2 0 -0 2 7 0 6 1 2 -4 2 2 4 1 -5 -1 -2 0 2 1 1 -2 -1 -4 3 1 -1 1 -1 -3 7 2 1 3 0 -2 -0 -2 0 -4 -2
-10 -3 -4 -2 -2 0 15 -6 3 0 1 2 7 15 2 -4 2 3 2 -4 -4 -3 -0 -6 1 -1 3 2 -2 1 2 0 -0 -2 -1 -5 0 -1 -1 0 5 1 -0 -0 -4 -3 -1 -2 -1
14 -5 3 -4 30 -0 -3 -5 -4 -3 -0 -7 -10 -7 8 2 -0 0 4 -3 -12 -1 -3 7 3 -7 -6 -3 -1 1 1 -4 -2 -4 -3 -3 2 -3 -4 -3 -4 -5 -5 -5 -2 -4 -7 -6 -6
27 14 -30 -10 17 9 11 4 7 -6 -10 -9 -8 -8 6 -4 1 1 10 6 -9 -0 -1 1 -2 1 -2 -1 2 -0 -3 -1 -0 -0 -2 -3 -3 -1 5 3 -0 -4 -5 -4 -4 -5 -5 -3 -3
8 0 9 11 20 12 14 33 26 16 8 -1 -6 -3 4 -5 -2 -0 4 -0 0 1 3 -3 0 -1 -2 -2 -1 2 2 -2 -1 -5 -2 -0 3 -1 -3 -1 -2 -3 -2 -2 -3 -2 -3 -4 1
-2 -20 13 -11 -6 -2 3 -4 -7 10 18 1 -3 -7 11 3 -3 -0 1 4 2 1 -0 3 2 2 0 3 4 -2 -3 -2 -1 -1 3 -0 1 2 -2 -4 -4 -3 -2 2 0 -3 -3 -5 -2
-5 -17 -9 2 -20 12 8 -8 -22 7 -2 7 11 5 -4 -6 -0 -5 5 5 5 3 3 2 2 3 0 1 -6 -3 -6 -6 -2 -7 -4 -9 -8 -12 -9 -4 -1 -1 -3 -3 -5 -6 -5 -6 -4
19 -1 12 16 -6 8 2 5 -3 -22 -9 -6 -1 -8 -1 -1 -1 -4 -5 -4 4 3 1 3 5 6 -4 -6 -3 -2 -1 -1 -2 -2 -2 0 -3 3 2 -4 -6 -7 -8 -8 -5 -4 -3 -4 -3
1 12 -3 -8 -11 -5 -4 4 -26 2 -10 -18 -6 12 3 2 -3 -1 -0 1 4 3 2 -1 -2 -4 -2 -3 -3 -1 -0 -0 1 3 3 3 -1 -8 -1 -3 -1 -0 1 1 1 0 -1 -1 -3
5 -2 -2 -4 -3 -6 7 -9 -7 -16 3 4 7 9 3 -1 -2 -3 -1 -0 -0 -0 1 -0 -1 -1 0 -0 1 2 3 3 4 2 1 1 4 2 -2 -1 1 0 -0 -2 -3 -2 -2 -2 -0
-7 7 14 13 6 3 -2 3 6 2 -7 -5 4 -2 -3 -3 -2 1 -1 1 1 0 1 1 -1 -0 0 3 3 4 9 3 -2 -0 -2 8 2 -2 -1 -2 -1 -1 0 0 -2 -2 -2 -3 -3
0 -6 7 14 -3 -1 -1 4 -4 2 4 -10 -2 -0 -2 0 -1 -3 -5 -3 0 2 4 6 -3 -6 -8 -2 -0 5 -0 -3 10 5 -5 2 -0 0 0 0 1 -1 -2 -2 0 -2 -2 -3 -3
13 0 -0 8 4 -5 -2 -2 -0 -7 0 -4 -5 -0 -1 -5 -3 -3 -4 -1 -4 -5 -7 -3 3 0 -1 -1 0 1 2 4 -4 -0 7 -4 -1 -0 -0 0 0 -0 -0 2 -1 -3 -1 -3 -2
4 -9 9 6 -10 4 1 -12 9 4 -6 -2 -2 -2 -4 -7 -5 2 -2 -1 3 -3 -0 2 -6 -2 2 3 8 9 -2 -6 4 7 -3 1 -0 -0 -0 -1 -2 -2 1 1 -1 0 0 -0 0
Height
3147 3148 3148 3149 3152 3148 3146 3144 3145 3146 3148 3143 3144 3147 3146 3148 3152 3153 3151 3155 3157 3162 3169 3172 3173 3173 3172 3174 3176 3177 3179 3181 3182 3183 3184 3184 3185 3186 3186 3187 3188 3188 3189 3190 3189 3188 3188 3188 3187
3145 3146 3147 3147 3146 3145 3145 3144 3142 3144 3143 3143 3146 3147 3149 3149 3152 3150 3150 3153 3156 3157 3162 3170 3172 3171 3172 3173 3175 3177 3179 3180 3182 3183 3184 3184 3186 3186 3186 3188 3189 3190 3190 3190 3190 3188 3188 3189 3188
3144 3144 3145 3144 3143 3143 3142 3142 3142 3140 3141 3142 3146 3147 3148 3149 3156 3155 3151 3153 3154 3156 3157 3168 3168 3169 3171 3173 3176 3178 3179 3179 3181 3181 3183 3183 3185 3187 3187 3188 3189 3190 3191 3191 3190 3189 3188 3188 3188
3143 3145 3145 3142 3140 3136 3140 3141 3141 3139 3139 3142 3142 3146 3148 3151 3150 3151 3152 3149 3151 3153 3157 3164 3164 3166 3169 3173 3176 3177 3179 3178 3180 3181 3183 3183 3185 3186 3187 3188 3190 3191 3191 3191 3190 3189 3189 3189 3188
3141 3142 3142 3140 3135 3141 3141 3140 3137 3136 3135 3140 3144 3148 3147 3146 3147 3150 3150 3149 3150 3149 3153 3159 3161 3163 3168 3172 3174 3176 3177 3178 3179 3180 3182 3184 3185 3186 3187 3189 3190 3191 3191 3191 3191 3189 3190 3188 3188
3139 3141 3141 3136 3135 3144 3138 3136 3139 3137 3138 3139 3146 3146 3145 3145 3145 3147 3149 3147 3148 3150 3149 3152 3155 3162 3166 3171 3174 3176 3177 3178 3179 3182 3183 3185 3186 3187 3188 3189 3190 3191 3191 3191 3190 3188 3188 3187 3186
3137 3140 3138 3138 3138 3145 3140 3138 3137 3139 3139 3140 3141 3143 3145 3145 3144 3144 3146 3146 3143 3148 3146 3150 3155 3162 3167 3171 3173 3176 3177 3177 3179 3181 3182 3184 3186 3186 3187 3188 3189 3189 3189 3190 3189 3187 3187 3185 3184
3138 3140 3138 3138 3141 3138 3139 3138 3139 3139 3139 3143 3143 3145 3144 3142 3142 3143 3143 3146 3146 3146 3150 3151 3162 3169 3170 3171 3173 3175 3176 3177 3179 3180 3181 3183 3185 3186 3186 3187 3187 3188 3188 3188 3186 3186 3185 3183 3182
3137 3139 3138 3138 3138 3137 3135 3138 3137 3139 3139 3140 3141 3141 3145 3141 3141 3142 3142 3143 3145 3145 3148 3150 3164 3168 3167 3170 3172 3174 3175 3176 3178 3180 3180 3183 3185 3185 3186 3186 3186 3185 3185 3184 3183 3182 3181 3180 3178
3137 3137 3136 3138 3135 3135 3133 3132 3130 3132 3133 3135 3139 3136 3140 3141 3141 3142 3142 3142 3143 3147 3151 3157 3163 3166 3169 3170 3172 3173 3175 3176 3177 3178 3180 3182 3183 3184 3185 3185 3182 3181 3181 3180 3180 3179 3177 3176 3176
3134 3134 3136 3137 3135 3134 3131 3131 3127 3126 3128 3129 3131 3133 3139 3139 3140 3143 3144 3142 3147 3149 3153 3159 3164 3166 3169 3171 3172 3173 3174 3175 3176 3177 3178 3180 3180 3181 3182 3180 3180 3179 3176 3175 3175 3174 3173 3170 3171
3133 3134 3135 3136 3136 3131 3132 3130 3126 3128 3129 3130 3132 3137 3137 3139 3140 3141 3142 3145 3146 3150 3156 3161 3166 3168 3170 3170 3171 3171 3173 3174 3174 3175 3176 3177 3176 3177 3178 3178 3176 3176 3174 3173 3172 3171 3170 3168 3167
3131 3131 3132 3135 3132 3129 3131 3131 3130 3131 3126 3127 3130 3135 3138 3139 3139 3140 3141 3148 3149 3154 3158 3162 3165 3167 3167 3169 3171 3172 3173 3174 3174 3175 3175 3175 3176 3174 3175 3173 3173 3173 3173 3171 3170 3169 3167 3165 3163
3128 3129 3131 3134 3136 3133 3133 3132 3132 3131 3129 3127 3132 3135 3138 3138 3140 3146 3149 3150 3151 3155 3160 3162 3164 3165 3167 3168 3169 3171 3173 3173 3174 3175 3174 3174 3173 3173 3173 3172 3172 3171 3170 3169 3166 3165 3164 3161 3159
3129 3131 3133 3133 3134 3133 3132 3133 3132 3133 3132 3130 3135 3137 3140 3138 3140 3143 3144 3145 3151 3155 3158 3161 3164 3165 3166 3167 3168 3170 3171 3171 3172 3173 3172 3171 3169 3169 3169 3169 3168 3165 3164 3163 3162 3160 3158 3156 3154
3130 3132 3133 3133 3135 3139 3138 3135 3132 3136 3137 3137 3138 3142 3141 3140 3140 3142 3144 3148 3152 3156 3159 3162 3163 3165 3166 3166 3168 3170 3170 3170 3170 3169 3168 3166 3165 3165 3164 3163 3163 3161 3159 3159 3158 3157 3155 3151 3147
3131 3130 3132 3135 3134 3137 3136 3137 3135 3137 3139 3140 3141 3144 3144 3144 3144 3144 3147 3149 3152 3156 3159 3162 3163 3163 3165 3166 3166 3166 3167 3167 3166 3165 3163 3161 3160 3159 3160 3160 3158 3156 3154 3153 3152 3151 3148 3144 3141
3133 3132 3132 3131 3135 3134 3135 3135 3136 3138 3140 3140 3142 3144 3144 3145 3148 3149 3149 3149 3152 3154 3158 3159 3161 3161 3163 3163 3163 3163 3164 3163 3163 3161 3160 3157 3156 3154 3156 3156 3155 3152 3150 3148 3146 3144 3142 3137 3132
3134 3139 3132 3129 3132 3132 3133 3132 3135 3138 3139 3139 3140 3142 3144 3144 3147 3149 3150 3149 3151 3153 3154 3155 3158 3157 3158 3159 3160 3160 3160 3159 3158 3157 3155 3155 3154 3152 3151 3151 3150 3149 3146 3142 3140 3136 3133 3130 3126
3131 3132 3128 3129 3130 3132 3132 3133 3135 3135 3137 3140 3142 3142 3144 3144 3146 3149 3150 3149 3146 3149 3151 3152 3153 3155 3156 3155 3155 3155 3154 3154 3154 3153 3152 3151 3150 3149 3149 3146 3144 3143 3141 3137 3132 3128 3125 3122 3118
3129 3126 3127 3129 3130 3130 3132 3134 3137 3137 3136 3138 3139 3140 3141 3140 3142 3144 3146 3146 3145 3147 3148 3149 3150 3151 3151 3152 3152 3151 3149 3149 3149 3148 3148 3147 3147 3146 3144 3143 3140 3136 3134 3130 3126 3121 3117 3113 3108
3126 3123 3123 3127 3129 3130 3131 3134 3135 3137 3136 3136 3136 3136 3139 3139 3140 3142 3142 3143 3143 3145 3145 3146 3147 3148 3147 3148 3147 3145 3144 3144 3145 3146 3145 3144 3143 3141 3138 3135 3133 3130 3127 3123 3117 3111 3106 3102 3096
3126 3123 3126 3128 3130 3129 3131 3131 3132 3134 3133 3137 3138 3138 3137 3137 3138 3137 3139 3140 3141 3141 3142 3143 3142 3143 3143 3144 3143 3141 3141 3140 3138 3137 3136 3134 3133 3129 3129 3127 3125 3121 3117 3112 3106 3100 3095 3091 3087
3125 3126 3126 3126 3127 3130 3126 3126 3125 3126 3128 3131 3133 3134 3134 3133 3132 3133 3133 3135 3137 3138 3138 3139 3140 3142 3140 3139 3140 3138 3136 3135 3133 3131 3131 3130 3128 3125 3120 3116 3112 3108 3104 3099 3095 3090 3085 3081 3077
3124 3124 3124 3126 3128 3126 3123 3124 3120 3120 3120 3122 3125 3130 3130 3131 3131 3130 3130 3132 3134 3135 3135 3135 3136 3137 3137 3136 3136 3136 3134 3132 3132 3131 3129 3127 3124 3120 3115 3111 3107 3103 3098 3093 3089 3084 3079 3072 3066
3123 3123 3124 3128 3131 3123 3122 3124 3117 3117 3119 3121 3123 3125 3126 3127 3128 3127 3127 3129 3130 3130 3130 3130 3131 3133 3134 3134 3134 3133 3132 3130 3128 3125 3123 3119 3115 3112 3108 3104 3101 3097 3091 3086 3080 3075 3070 3063 3058
3120 3121 3124 3123 3122 3122 3118 3116 3115 3114 3116 3118 3120 3120 3122 3122 3123 3123 3123 3124 3127 3128 3128 3128 3127 3128 3130 3131 3131 3130 3128 3125 3124 3120 3116 3110 3107 3104 3100 3096 3091 3087 3082 3076 3071 3066 3060 3053 3049
3119 3121 3123 3121 3121 3121 3116 3114 3110 3112 3113 3114 3117 3118 3118 3119 3120 3120 3119 3120 3122 3125 3127 3124 3122 3121 3122 3124 3125 3123 3122 3119 3114 3112 3108 3104 3098 3096 3092 3087 3083 3078 3072 3066 3061 3056 3050 3045 3039
3118 3118 3118 3118 3118 3117 3120 3116 3112 3112 3114 3114 3115 3116 3116 3116 3117 3117 3116 3116 3117 3118 3120 3119 3119 3117 3116 3115 3115 3114 3112 3110 3107 3103 3098 3093 3090 3086 3082 3078 3072 3068 3063 3059 3052 3047 3041 3035 3030
3114 3114 3113 3114 3115 3113 3113 3114 3114 3114 3113 3113 3111 3111 3111 3113 3114 3115 3115 3114 3114 3114 3114 3113 3113 3114 3113 3112 3109 3106 3105 3102 3098 3094 3088 3084 3080 3076 3072 3068 3064 3059 3054 3049 3043 3037 3031 3027 3021